Home > Weather > Livonia > Past weeks

Flag for USA Past Weather in Livonia, Michigan, USA — Yesterday and Last 2 Weeks

Now
84 °F

Broken clouds.


Feels Like: 84 °F
Forecast: 70 / 82 °F
Wind: 10 mph from Northeast

Location: Detroit Metropolitan Wayne County Airport

Current Time: Jul 28, 2016 at 8:20:01 PM

Latest Report: Jul 28, 2016 at 7:53 PM


Visibility: 10 mi

Pressure: 29.88 "Hg

Humidity: 43%

Dew Point: 59 °F

Location of LivoniaLocation

Past Weather in Livonia — Graph

°F

Livonia Temperature Yesterday

Maximum temperature yesterday: 91 °F (at 3:53 PM)
Minimum temperature yesterday: 68 °F (at 4:53 AM)
Average temperature yesterday: 80 °F

High & Low Weather Summary for the Past Weeks

 TemperatureHumidityPressure
High96 °F (Jul 23, 3:53 PM)94% (Jul 22, 7:00 AM)30.28 "Hg (Jul 22, 7:00 AM)
Low62 °F (Jul 19, 4:53 AM)30% (Jul 23, 1:53 PM)29.78 "Hg (Jul 14, 5:53 PM)
Average78 °F63%30.00 "Hg
* Reported Jul 13 6:53 PM — Jul 28 6:53 PM, Livonia, Weather by CustomWeather, © 2016

Note: Actual official high and low records may vary slightly from our data, if they occured in-between our weather recording intervals... More about our weather records

Advertising

Livonia Weather History for the Previous 24 Hours

Scroll right to see more
 ConditionsComfort  
Time TempWeatherWind HumidityBarometerVisibility
6:53 PM
Thu, Jul 28
86 °FBroken clouds.10 mph42%29.87 "Hg9 mi
5:53 PM85 °FBroken clouds.8 mph46%29.85 "Hg9 mi
4:53 PM86 °FBroken clouds.No wind46%29.85 "Hg9 mi
3:53 PM87 °FBroken clouds.7 mph48%29.86 "Hg10 mi
2:53 PM87 °FPartly sunny.5 mph46%29.88 "Hg9 mi
1:53 PM85 °FMore clouds than sun.7 mph50%29.89 "Hg9 mi
12:53 PM84 °FOvercast.8 mph49%29.89 "Hg9 mi
11:53 AM82 °FOvercast.7 mph56%29.90 "Hg10 mi
10:53 AM80 °FMore clouds than sun.9 mph60%29.90 "Hg9 mi
9:53 AM78 °FMore clouds than sun.8 mph64%29.92 "Hg9 mi
8:53 AM74 °FMostly cloudy.5 mph74%29.92 "Hg8 mi
7:53 AM73 °FMostly cloudy.3 mph74%29.92 "Hg8 mi
6:53 AM71 °FPartly cloudy.3 mph78%29.91 "Hg8 mi
5:53 AM71 °FPassing clouds.5 mph81%29.90 "Hg10 mi
4:53 AM71 °FPassing clouds.5 mph81%29.90 "Hg10 mi
3:53 AM71 °FPassing clouds.3 mph78%29.89 "Hg10 mi
2:53 AM73 °FPassing clouds.3 mph74%29.90 "Hg10 mi
1:53 AM74 °FPassing clouds.3 mph71%29.91 "Hg10 mi
12:53 AM75 °FPassing clouds.6 mph69%29.92 "Hg9 mi
11:53 PM
Wed, Jul 27
79 °FPassing clouds.No wind60%29.93 "Hg10 mi
10:53 PM80 °FPartly cloudy.5 mph56%29.93 "Hg10 mi
9:53 PM82 °FBroken clouds.8 mph53%29.92 "Hg10 mi
8:53 PM83 °FBroken clouds.10 mph51%29.91 "Hg10 mi
Weather by CustomWeather, © 2016

See weather overviewHow to use our weather pages